Spokane Felts, WA

11:33 AM PDT on October 18, 2017 (GMT -0700)
Felts

Weather History for KSFF - October, 2011

Change the Weather History Date:

Saturday, October 29, 2011

  Actual Average Record
Temperature  
Mean Temperature 43 °F 43 °F  
Max Temperature 54 °F 52 °F 65 °F (2012)
Min Temperature 31 °F 34 °F 23 °F (2002)
Degree Days  
Heating Degree Days 22 22  
Month to date heating degree days 448 481  
Since 1 July heating degree days 568 692  
Cooling Degree Days 0 0  
Month to date cooling degree days 1 0  
Year to date cooling degree days 381 406  
Moisture  
Dew Point 34 °F    
Average Humidity 71    
Maximum Humidity 100    
Minimum Humidity 41    
Precipitation  
Precipitation 0.00 in 0.05 in 0.35 in (2012)
Month to date precipitation 0.87 1.26  
Year to date precipitation 14.19 12.84  
Sea Level Pressure  
Sea Level Pressure 30.19 in    
Wind  
Wind Speed 3 mph (West)    
Max Wind Speed 12 mph    
Max Gust Speed 15 mph    
Visibility 9 miles    
Events Fog    
T = Trace of Precipitation, MM = Missing Value Source: NWS Daily Summary

Daily Weather History Graph

Daily Weather History Graph

Search for Another Location

Airport or City:

Trip Planner

Search our weather history database for the weather conditions in past years. The results will help you decide how hot, cold, wet, or windy it might be!

Date:

Astronomy

Oct. 29, 2011 Rise Set
Actual Time 7:28 AM PDT 5:36 PM PDT
Civil Twilight 6:56 AM PDT 6:08 PM PDT
Nautical Twilight 6:20 AM PDT 6:44 PM PDT
Astronomical Twilight 5:44 AM PDT 7:20 PM PDT
Moon 11:09 AM PDT (10/29) 7:50 PM PDT (10/29)
Length of Visible Light 11h 11m
Length of Day
10h 07m
Waxing Crescent, 12% of the Moon is Illuminated
Oct 29
Waxing Crescent
Nov 2
First Quarter
Nov 10
Full
Nov 18
Last Quarter
Nov 24
New

Hourly Weather History & Observations

Time (PDT) Temp. Windchill Dew Point Humidity Pressure Visibility Wind Dir Wind Speed Gust Speed Precip Events Conditions
12:53 AM 44.1 °F 40.8 °F 39.0 °F 82% 30.00 in 10.0 mi West 5.8 mph - N/A   Partly Cloudy
1:53 AM 39.9 °F 35.8 °F 37.0 °F 89% 30.01 in 10.0 mi WSW 5.8 mph - N/A   Clear
2:53 AM 39.2 °F - 37.4 °F 93% 30.00 in 9.0 mi Calm Calm - N/A   Clear
3:53 AM 39.0 °F - 37.0 °F 93% 30.05 in 8.0 mi Calm Calm - N/A   Partly Cloudy
4:53 AM 37.0 °F - 36.0 °F 96% 30.09 in 9.0 mi Calm Calm - N/A   Clear
5:38 AM 37.4 °F - 35.6 °F 93% 30.09 in 2.5 mi Calm Calm - N/A   Partly Cloudy
5:46 AM 35.6 °F - 33.8 °F 93% 30.09 in 10.0 mi Calm Calm - N/A Fog Shallow Fog
5:53 AM 36.0 °F - 34.0 °F 93% 30.13 in 10.0 mi Calm Calm - N/A Fog Shallow Fog
6:53 AM 34.0 °F - 33.1 °F 96% 30.17 in 10.0 mi Calm Calm - N/A   Partly Cloudy
7:47 AM 33.8 °F - 32.0 °F 93% 30.16 in 0.5 mi Calm Calm - N/A Fog Patches of Fog
7:53 AM 30.9 °F - 30.0 °F 96% 30.20 in 0.5 mi Calm Calm - N/A Fog Patches of Fog
7:58 AM 32.0 °F - 30.2 °F 93% 30.16 in 10.0 mi Calm Calm - N/A Fog Patches of Fog
8:53 AM 35.1 °F - 34.0 °F 96% 30.23 in 10.0 mi Calm Calm - N/A Fog Patches of Fog
9:53 AM 41.0 °F - 37.0 °F 86% 30.24 in 10.0 mi Calm Calm - N/A   Clear
10:53 AM 45.0 °F 43.5 °F 37.0 °F 74% 30.25 in 10.0 mi West 3.5 mph - N/A   Clear
11:53 AM 48.0 °F - 35.1 °F 61% 30.26 in 10.0 mi Calm Calm - N/A   Clear
12:53 PM 50.0 °F - 34.0 °F 54% 30.27 in 10.0 mi West 4.6 mph - N/A   Clear
1:53 PM 52.0 °F - 33.1 °F 49% 30.28 in 10.0 mi WSW 6.9 mph - N/A   Overcast
2:53 PM 53.1 °F - 34.0 °F 48% 30.27 in 10.0 mi SW 8.1 mph - N/A   Partly Cloudy
3:53 PM 53.6 °F - 30.2 °F 41% 30.25 in 10.0 mi SSW 8.1 mph - N/A   Partly Cloudy
4:53 PM 52.0 °F - 30.9 °F 45% 30.27 in 10.0 mi SW 10.4 mph - N/A   Mostly Cloudy
5:53 PM 48.9 °F - 33.1 °F 54% 30.27 in 10.0 mi Calm Calm - N/A   Partly Cloudy
6:53 PM 43.0 °F - 34.0 °F 71% 30.30 in 10.0 mi Calm Calm - N/A   Clear
7:53 PM 39.9 °F 37.8 °F 35.1 °F 83% 30.29 in 10.0 mi NE 3.5 mph - N/A   Clear
8:53 PM 41.0 °F 39.0 °F 34.0 °F 76% 30.29 in 10.0 mi NNE 3.5 mph - N/A   Clear
9:53 PM 37.9 °F 35.5 °F 34.0 °F 86% 30.28 in 10.0 mi NNE 3.5 mph - N/A   Clear
10:53 PM 39.0 °F 35.7 °F 33.1 °F 79% 30.28 in 10.0 mi ENE 4.6 mph - N/A   Clear
11:53 PM 36.0 °F 31.1 °F 33.1 °F 89% 30.28 in 10.0 mi ENE 5.8 mph - N/A   Clear